This is the latest recevied weather packets stored in our database for station/object WV8BRW. If no packets are shown the sender has not sent any weather packets the latest 10 day(s).
| Time | Temp. | Humidity | Pressure | Rain* | Wind** | Luminosity | Snow |
|---|---|---|---|---|---|---|---|
| 1777975698 | 13.89° C | 82% | 1009.3 hPa | 0 mm | - | 0 W/m² | - |
| 1777975395 | 13.89° C | 82% | 1009.1 hPa | 0 mm | - | 0 W/m² | - |
| 1777975091 | 13.89° C | 83% | 1009.3 hPa | 0 mm | - | 0 W/m² | - |
| 1777974789 | 13.89° C | 83% | 1009.1 hPa | 0 mm | - | 0 W/m² | - |
| 1777974484 | 13.89° C | 83% | 1008.9 hPa | 0 mm | - | 0 W/m² | - |
| 1777974182 | 14.44° C | 82% | 1008.9 hPa | 0 mm | - | 0 W/m² | - |
| 1777973877 | 14.44° C | 81% | 1008.8 hPa | 0 mm | - | 0 W/m² | - |
| 1777973575 | 15° C | 80% | 1008.6 hPa | 0 mm | - | 0 W/m² | - |
| 1777973271 | 15° C | 79% | 1008.5 hPa | 0 mm | - | 0 W/m² | - |
| 1777972970 | 15° C | 79% | 1008.5 hPa | 0 mm | - | 0 W/m² | - |
| 1777972667 | 15.56° C | 78% | 1008.6 hPa | 0 mm | - | 0 W/m² | - |
| 1777972365 | 15° C | 79% | 1008.8 hPa | 0 mm | - | 0 W/m² | - |
| 1777972063 | 15° C | 79% | 1008.6 hPa | 0 mm | - | 0 W/m² | - |
| 1777971761 | 15.56° C | 78% | 1008.4 hPa | 0 mm | - | 0 W/m² | - |
| 1777971458 | 15° C | 79% | 1008.4 hPa | 0 mm | - | 0 W/m² | - |
| 1777971156 | 15.56° C | 79% | 1008.6 hPa | 0 mm | - | 0 W/m² | - |
| 1777970853 | 15.56° C | 77% | 1008.4 hPa | 0 mm | - | 0 W/m² | - |
| 1777970552 | 16.11° C | 75% | 1008.5 hPa | 0 mm | - | 0 W/m² | - |
| 1777970248 | 16.11° C | 75% | 1008.2 hPa | 0 mm | - | 0 W/m² | - |
| 1777969945 | 16.11° C | 74% | 1008 hPa | 0 mm | - | 0 W/m² | - |
| 1777969641 | 16.67° C | 74% | 1008.4 hPa | 0 mm | - | 0 W/m² | - |
| 1777969339 | 16.11° C | 76% | 1008.3 hPa | 0 mm | - | 0 W/m² | - |
| 1777969034 | 16.67° C | 76% | 1008.3 hPa | 0 mm | - | 0 W/m² | - |
| 1777968732 | 16.11° C | 74% | 1008.4 hPa | 0 mm | - | 0 W/m² | - |
| 1777968429 | 16.11° C | 76% | 1008.3 hPa | 0 mm | - | 0 W/m² | - |
* Rain latest hour (hover to see other rain measurements)
** Current wind speed in m/s (hover to see current wind gust speed)